Time,TemperatureF,DewpointF,PressureIn,WindDirection,WindDirectionDegrees,WindSpeedMPH,WindSpeedGustMPH,Humidity,HourlyPrecipIn,Conditions,Clouds,dailyrainin,SoftwareType,DateUTC
2013-07-12 00:00:00,73.2,72.6,29.94,SSE,167,0.0,6.0,98,0.00,,,0.80,Wunderground v.1.15,2013-07-12 05:00:00,
2013-07-12 00:05:00,73.3,72.7,29.94,SSE,167,0.0,6.0,98,0.00,,,0.00,Wunderground v.1.15,2013-07-12 05:05:00,
2013-07-12 00:15:00,73.3,72.7,29.93,SE,131,0.0,1.0,98,0.00,,,0.00,Wunderground v.1.15,2013-07-12 05:15:00,
2013-07-12 00:20:00,73.4,72.8,29.93,SSE,168,1.0,2.0,98,0.00,,,0.00,Wunderground v.1.15,2013-07-12 05:20:00,
2013-07-12 00:30:00,73.4,73.1,29.92,SSE,149,1.0,1.0,99,0.00,,,0.00,Wunderground v.1.15,2013-07-12 05:30:00,
2013-07-12 00:35:00,73.3,72.7,29.92,SE,146,1.0,1.0,98,0.00,,,0.00,Wunderground v.1.15,2013-07-12 05:35:00,
2013-07-12 00:40:00,73.1,72.5,29.92,SE,146,1.0,1.0,98,0.00,,,0.00,Wunderground v.1.15,2013-07-12 05:40:00,
2013-07-12 00:45:00,73.2,72.9,29.92,SE,146,1.0,1.0,99,0.00,,,0.00,Wunderground v.1.15,2013-07-12 05:45:00,
2013-07-12 00:50:00,73.2,72.6,29.92,SSE,148,0.0,0.0,98,0.00,,,0.00,Wunderground v.1.15,2013-07-12 05:50:00,
2013-07-12 00:55:00,72.9,72.3,29.92,SE,145,0.0,1.0,98,0.00,,,0.00,Wunderground v.1.15,2013-07-12 05:55:00,
2013-07-12 01:05:00,72.8,72.5,29.92,SE,144,0.0,1.0,99,0.00,,,0.00,Wunderground v.1.15,2013-07-12 06:05:00,
2013-07-12 01:10:00,72.7,72.1,29.92,SE,144,0.0,1.0,98,0.00,,,0.00,Wunderground v.1.15,2013-07-12 06:10:00,
2013-07-12 01:15:00,72.7,72.4,29.91,SE,143,0.0,1.0,99,0.00,,,0.00,Wunderground v.1.15,2013-07-12 06:15:00,
2013-07-12 01:20:00,72.8,72.5,29.91,SE,143,0.0,1.0,99,0.00,,,0.00,Wunderground v.1.15,2013-07-12 06:20:00,
2013-07-12 01:25:00,72.8,72.5,29.91,SE,144,1.0,1.0,99,0.00,,,0.00,Wunderground v.1.15,2013-07-12 06:25:00,
2013-07-12 01:35:00,72.7,72.4,29.91,SE,144,0.0,1.0,99,0.00,,,0.00,Wunderground v.1.15,2013-07-12 06:35:00,
2013-07-12 01:40:00,72.8,72.5,29.91,SE,144,0.0,1.0,99,0.00,,,0.00,Wunderground v.1.15,2013-07-12 06:40:00,
2013-07-12 01:45:00,72.7,72.4,29.91,SE,144,0.0,1.0,99,0.00,,,0.00,Wunderground v.1.15,2013-07-12 06:45:00,
2013-07-12 01:50:00,72.7,72.4,29.91,SE,144,0.0,1.0,99,0.00,,,0.00,Wunderground v.1.15,2013-07-12 06:50:00,
2013-07-12 01:55:00,72.7,72.4,29.91,SE,144,1.0,1.0,99,0.00,,,0.00,Wunderground v.1.15,2013-07-12 06:55:00,
2013-07-12 02:00:00,72.7,72.4,29.91,SE,144,0.0,1.0,99,0.00,,,0.00,Wunderground v.1.15,2013-07-12 07:00:00,
2013-07-12 02:10:00,72.7,72.4,29.91,SE,144,0.0,1.0,99,0.00,,,0.00,Wunderground v.1.15,2013-07-12 07:10:00,
2013-07-12 02:15:00,72.6,72.3,29.91,SE,144,0.0,1.0,99,0.00,,,0.00,Wunderground v.1.15,2013-07-12 07:15:00,
2013-07-12 02:20:00,72.4,72.1,29.91,SE,143,0.0,1.0,99,0.00,,,0.00,Wunderground v.1.15,2013-07-12 07:20:00,
2013-07-12 02:25:00,72.4,72.1,29.91,SE,143,0.0,1.0,99,0.00,,,0.00,Wunderground v.1.15,2013-07-12 07:25:00,
2013-07-12 02:30:00,72.6,72.3,29.91,SE,143,0.0,1.0,99,0.00,,,0.00,Wunderground v.1.15,2013-07-12 07:30:00,
2013-07-12 02:40:00,72.6,72.3,29.91,ESE,122,1.0,1.0,99,0.00,,,0.00,Wunderground v.1.15,2013-07-12 07:40:00,
2013-07-12 02:45:00,72.5,72.2,29.91,ESE,109,1.0,1.0,99,0.00,,,0.00,Wunderground v.1.15,2013-07-12 07:45:00,
2013-07-12 02:50:00,72.3,72.0,29.91,ESE,109,1.0,1.0,99,0.00,,,0.00,Wunderground v.1.15,2013-07-12 07:50:00,
2013-07-12 02:55:00,72.2,71.9,29.91,ESE,111,1.0,1.0,99,0.00,,,0.00,Wunderground v.1.15,2013-07-12 07:55:00,
2013-07-12 03:00:00,72.3,72.0,29.91,ESE,110,0.0,1.0,99,0.00,,,0.00,Wunderground v.1.15,2013-07-12 08:00:00,
2013-07-12 03:05:00,72.3,72.0,29.91,ESE,110,0.0,1.0,99,0.00,,,0.00,Wunderground v.1.15,2013-07-12 08:05:00,
2013-07-12 03:15:00,72.4,72.1,29.91,ESE,110,0.0,1.0,99,0.00,,,0.00,Wunderground v.1.15,2013-07-12 08:15:00,
2013-07-12 03:20:00,72.4,72.1,29.91,ESE,110,0.0,1.0,99,0.00,,,0.00,Wunderground v.1.15,2013-07-12 08:20:00,
2013-07-12 03:25:00,72.4,72.1,29.91,ESE,110,0.0,1.0,99,0.00,,,0.00,Wunderground v.1.15,2013-07-12 08:25:00,
2013-07-12 03:30:00,72.4,72.1,29.91,ESE,110,0.0,1.0,99,0.00,,,0.00,Wunderground v.1.15,2013-07-12 08:30:00,
2013-07-12 03:35:00,72.4,72.1,29.91,ESE,110,0.0,1.0,99,0.00,,,0.00,Wunderground v.1.15,2013-07-12 08:35:00,
2013-07-12 03:40:00,72.3,72.0,29.91,ESE,110,0.0,1.0,99,0.00,,,0.00,Wunderground v.1.15,2013-07-12 08:40:00,
2013-07-12 03:45:00,72.3,72.0,29.91,ESE,110,0.0,1.0,99,0.00,,,0.00,Wunderground v.1.15,2013-07-12 08:45:00,
2013-07-12 03:50:00,72.3,72.0,29.91,SE,139,0.0,1.0,99,0.00,,,0.00,Wunderground v.1.15,2013-07-12 08:50:00,
2013-07-12 03:55:00,72.4,72.1,29.91,SE,139,0.0,1.0,99,0.00,,,0.00,Wunderground v.1.15,2013-07-12 08:55:00,
2013-07-12 04:00:00,72.3,72.0,29.91,East,101,0.0,1.0,99,0.00,,,0.00,Wunderground v.1.15,2013-07-12 09:00:00,
2013-07-12 04:05:00,72.2,71.9,29.92,East,101,0.0,1.0,99,0.00,,,0.00,Wunderground v.1.15,2013-07-12 09:05:00,
2013-07-12 04:10:00,72.2,71.9,29.92,East,101,0.0,1.0,99,0.00,,,0.00,Wunderground v.1.15,2013-07-12 09:10:00,
2013-07-12 04:20:00,72.4,72.1,29.92,East,101,0.0,1.0,99,0.00,,,0.00,Wunderground v.1.15,2013-07-12 09:20:00,
2013-07-12 04:25:00,72.5,72.2,29.92,East,101,0.0,1.0,99,0.00,,,0.00,Wunderground v.1.15,2013-07-12 09:25:00,
2013-07-12 04:30:00,72.5,72.2,29.92,East,101,0.0,1.0,99,0.00,,,0.00,Wunderground v.1.15,2013-07-12 09:30:00,
2013-07-12 04:35:00,72.5,72.2,29.92,East,101,0.0,1.0,99,0.00,,,0.00,Wunderground v.1.15,2013-07-12 09:35:00,
2013-07-12 04:40:00,72.5,72.2,29.92,East,101,0.0,1.0,99,0.00,,,0.00,Wunderground v.1.15,2013-07-12 09:40:00,
2013-07-12 04:45:00,72.5,72.2,29.92,East,101,0.0,1.0,99,0.00,,,0.00,Wunderground v.1.15,2013-07-12 09:45:00,
2013-07-12 04:55:00,72.5,72.2,29.93,East,101,0.0,1.0,99,0.00,,,0.00,Wunderground v.1.15,2013-07-12 09:55:00,
2013-07-12 05:00:00,72.6,72.3,29.93,East,101,0.0,1.0,99,0.00,,,0.00,Wunderground v.1.15,2013-07-12 10:00:00,
2013-07-12 05:05:00,72.6,72.3,29.93,East,101,0.0,1.0,99,0.00,,,0.00,Wunderground v.1.15,2013-07-12 10:05:00,
2013-07-12 05:10:00,72.6,72.3,29.93,East,101,0.0,1.0,99,0.00,,,0.00,Wunderground v.1.15,2013-07-12 10:10:00,
2013-07-12 05:15:00,72.6,72.3,29.93,East,101,0.0,1.0,99,0.00,,,0.00,Wunderground v.1.15,2013-07-12 10:15:00,
2013-07-12 05:20:00,72.5,72.2,29.93,East,101,0.0,1.0,99,0.00,,,0.00,Wunderground v.1.15,2013-07-12 10:20:00,
2013-07-12 05:25:00,72.4,72.1,29.93,East,101,0.0,1.0,99,0.00,,,0.00,Wunderground v.1.15,2013-07-12 10:25:00,
2013-07-12 05:30:00,72.4,72.1,29.93,East,101,0.0,1.0,99,0.00,,,0.00,Wunderground v.1.15,2013-07-12 10:30:00,
2013-07-12 05:35:00,72.4,72.1,29.93,East,101,0.0,1.0,99,0.00,,,0.00,Wunderground v.1.15,2013-07-12 10:35:00,
2013-07-12 05:40:00,72.4,72.1,29.93,East,101,0.0,1.0,99,0.00,,,0.00,Wunderground v.1.15,2013-07-12 10:40:00,
2013-07-12 05:45:00,72.5,72.2,29.93,East,101,0.0,1.0,99,0.00,,,0.00,Wunderground v.1.15,2013-07-12 10:45:00,
2013-07-12 05:55:00,72.5,72.2,29.94,East,101,0.0,1.0,99,0.00,,,0.00,Wunderground v.1.15,2013-07-12 10:55:00,
2013-07-12 06:00:00,72.4,72.1,29.94,East,101,0.0,1.0,99,0.00,,,0.00,Wunderground v.1.15,2013-07-12 11:00:00,
2013-07-12 06:05:00,72.5,72.2,29.93,East,101,0.0,1.0,99,0.00,,,0.00,Wunderground v.1.15,2013-07-12 11:05:00,
2013-07-12 06:10:00,72.5,72.2,29.93,East,101,0.0,1.0,99,0.00,,,0.00,Wunderground v.1.15,2013-07-12 11:10:00,
2013-07-12 06:15:00,72.5,72.2,29.93,East,101,0.0,1.0,99,0.00,,,0.00,Wunderground v.1.15,2013-07-12 11:15:00,
2013-07-12 06:25:00,72.3,72.0,29.94,ESE,108,1.0,1.0,99,0.00,,,0.00,Wunderground v.1.15,2013-07-12 11:25:00,
2013-07-12 06:30:00,72.4,72.1,29.94,ESE,108,1.0,1.0,99,0.00,,,0.00,Wunderground v.1.15,2013-07-12 11:30:00,
2013-07-12 06:35:00,72.5,72.2,29.94,ESE,108,0.0,1.0,99,0.00,,,0.00,Wunderground v.1.15,2013-07-12 11:35:00,
2013-07-12 06:40:00,72.4,72.1,29.94,ESE,104,1.0,1.0,99,0.00,,,0.00,Wunderground v.1.15,2013-07-12 11:40:00,
2013-07-12 06:45:00,72.6,72.3,29.94,ESE,103,1.0,1.0,99,0.00,,,0.00,Wunderground v.1.15,2013-07-12 11:45:00,
2013-07-12 06:50:00,72.6,72.3,29.94,East,91,1.0,1.0,99,0.00,,,0.00,Wunderground v.1.15,2013-07-12 11:50:00,
2013-07-12 07:00:00,73.1,73.1,29.94,East,91,0.0,1.0,100,0.00,,,0.00,Wunderground v.1.15,2013-07-12 12:00:00,
2013-07-12 07:05:00,73.3,73.3,29.94,East,91,0.0,1.0,100,0.00,,,0.00,Wunderground v.1.15,2013-07-12 12:05:00,
2013-07-12 07:10:00,73.6,73.6,29.94,East,91,0.0,1.0,100,0.00,,,0.00,Wunderground v.1.15,2013-07-12 12:10:00,
2013-07-12 07:15:00,73.6,73.3,29.94,East,91,0.0,2.0,99,0.00,,,0.00,Wunderground v.1.15,2013-07-12 12:15:00,
2013-07-12 07:20:00,73.7,73.4,29.94,East,98,1.0,1.0,99,0.00,,,0.00,Wunderground v.1.15,2013-07-12 12:20:00,
2013-07-12 07:30:00,74.0,73.7,29.94,East,98,1.0,1.0,99,0.00,,,0.00,Wunderground v.1.15,2013-07-12 12:30:00,
2013-07-12 07:35:00,74.4,74.1,29.94,East,98,0.0,1.0,99,0.00,,,0.00,Wunderground v.1.15,2013-07-12 12:35:00,
2013-07-12 07:40:00,74.6,74.3,29.95,East,89,1.0,2.0,99,0.00,,,0.00,Wunderground v.1.15,2013-07-12 12:40:00,
2013-07-12 07:45:00,75.0,74.7,29.96,NNE,32,2.0,2.0,99,0.00,,,0.00,Wunderground v.1.15,2013-07-12 12:45:00,
2013-07-12 07:50:00,75.1,74.8,29.95,NNW,329,2.0,2.0,99,0.00,,,0.00,Wunderground v.1.15,2013-07-12 12:50:00,
2013-07-12 07:55:00,75.3,75.0,29.95,NE,53,2.0,2.0,99,0.00,,,0.00,Wunderground v.1.15,2013-07-12 12:55:00,
2013-07-12 08:05:00,76.0,75.7,29.95,ENE,60,2.0,3.0,99,0.00,,,0.00,Wunderground v.1.15,2013-07-12 13:05:00,
2013-07-12 08:10:00,76.4,76.1,29.95,North,11,2.0,2.0,99,0.00,,,0.00,Wunderground v.1.15,2013-07-12 13:10:00,
2013-07-12 08:15:00,77.3,77.0,29.95,North,354,1.0,2.0,99,0.00,,,0.00,Wunderground v.1.15,2013-07-12 13:15:00,
2013-07-12 08:20:00,77.4,76.5,29.95,North,7,1.0,2.0,97,0.00,,,0.00,Wunderground v.1.15,2013-07-12 13:20:00,
2013-07-12 08:25:00,77.9,77.0,29.95,NNW,327,2.0,4.0,97,0.00,,,0.00,Wunderground v.1.15,2013-07-12 13:25:00,
2013-07-12 08:35:00,79.0,77.1,29.95,NNW,337,3.0,4.0,94,0.00,,,0.00,Wunderground v.1.15,2013-07-12 13:35:00,
2013-07-12 08:40:00,79.5,77.0,29.95,NNW,336,3.0,3.0,92,0.00,,,0.00,Wunderground v.1.15,2013-07-12 13:40:00,
2013-07-12 08:45:00,79.9,77.0,29.96,NNE,21,3.0,3.0,91,0.00,,,0.00,Wunderground v.1.15,2013-07-12 13:45:00,
2013-07-12 08:50:00,80.2,77.0,29.96,NNW,335,3.0,3.0,90,0.00,,,0.00,Wunderground v.1.15,2013-07-12 13:50:00,
2013-07-12 08:55:00,80.7,77.5,29.96,NNE,20,3.0,4.0,90,0.00,,,0.00,Wunderground v.1.15,2013-07-12 13:55:00,
2013-07-12 09:00:00,80.8,77.3,29.96,NNE,25,3.0,7.0,89,0.00,,,0.00,Wunderground v.1.15,2013-07-12 14:00:00,
2013-07-12 09:05:00,81.2,77.6,29.96,NNW,343,3.0,7.0,89,0.00,,,0.00,Wunderground v.1.15,2013-07-12 14:05:00,
2013-07-12 09:10:00,81.5,77.6,29.96,NNE,32,3.0,3.0,88,0.00,,,0.00,Wunderground v.1.15,2013-07-12 14:10:00,
2013-07-12 09:15:00,81.6,77.4,29.95,North,354,4.0,4.0,87,0.00,,,0.00,Wunderground v.1.15,2013-07-12 14:15:00,
2013-07-12 09:20:00,81.8,77.2,29.95,North,354,4.0,4.0,86,0.00,,,0.00,Wunderground v.1.15,2013-07-12 14:20:00,
2013-07-12 09:25:00,82.4,77.8,29.95,NNW,328,4.0,4.0,86,0.00,,,0.00,Wunderground v.1.15,2013-07-12 14:25:00,
2013-07-12 09:30:00,82.7,77.7,29.96,ENE,65,3.0,3.0,85,0.00,,,0.00,Wunderground v.1.15,2013-07-12 14:30:00,
2013-07-12 09:40:00,83.5,77.4,29.96,NE,39,3.0,3.0,82,0.00,,,0.00,Wunderground v.1.15,2013-07-12 14:40:00,
2013-07-12 09:45:00,83.7,78.3,29.96,NE,41,2.0,6.0,84,0.00,,,0.00,Wunderground v.1.15,2013-07-12 14:45:00,
2013-07-12 09:50:00,83.7,78.0,29.96,NE,46,3.0,3.0,83,0.00,,,0.00,Wunderground v.1.15,2013-07-12 14:50:00,
2013-07-12 09:55:00,83.8,78.4,29.96,ENE,65,4.0,6.0,84,0.00,,,0.00,Wunderground v.1.15,2013-07-12 14:55:00,
2013-07-12 10:00:00,83.9,78.2,29.96,North,359,4.0,5.0,83,0.00,,,0.00,Wunderground v.1.15,2013-07-12 15:00:00,
2013-07-12 10:10:00,83.9,77.8,29.95,NE,39,4.0,4.0,82,0.00,,,0.00,Wunderground v.1.15,2013-07-12 15:10:00,
2013-07-12 10:15:00,84.1,78.7,29.95,North,352,3.0,4.0,84,0.00,,,0.00,Wunderground v.1.15,2013-07-12 15:15:00,
2013-07-12 10:20:00,84.7,78.2,29.95,North,9,3.0,3.0,81,0.00,,,0.00,Wunderground v.1.15,2013-07-12 15:20:00,
2013-07-12 10:25:00,84.9,78.4,29.95,North,355,4.0,4.0,81,0.00,,,0.00,Wunderground v.1.15,2013-07-12 15:25:00,
2013-07-12 10:30:00,85.0,78.1,29.94,North,6,4.0,4.0,80,0.00,,,0.00,Wunderground v.1.15,2013-07-12 15:30:00,
2013-07-12 10:35:00,85.6,78.3,29.94,NW,324,4.0,6.0,79,0.00,,,0.00,Wunderground v.1.15,2013-07-12 15:35:00,
2013-07-12 10:45:00,85.5,78.2,29.94,NNW,343,4.0,4.0,79,0.00,,,0.00,Wunderground v.1.15,2013-07-12 15:45:00,
2013-07-12 10:50:00,85.7,78.4,29.94,NNW,330,4.0,4.0,79,0.00,,,0.00,Wunderground v.1.15,2013-07-12 15:50:00,
2013-07-12 10:55:00,86.4,78.7,29.94,NW,316,4.0,4.0,78,0.00,,,0.00,Wunderground v.1.15,2013-07-12 15:55:00,
2013-07-12 11:00:00,87.2,78.7,29.94,NNE,25,3.0,5.0,76,0.00,,,0.00,Wunderground v.1.15,2013-07-12 16:00:00,
2013-07-12 11:05:00,87.5,78.6,29.94,NNW,347,3.0,5.0,75,0.00,,,0.00,Wunderground v.1.15,2013-07-12 16:05:00,
2013-07-12 11:15:00,87.9,78.2,29.94,NE,34,3.0,3.0,73,0.00,,,0.00,Wunderground v.1.15,2013-07-12 16:15:00,
2013-07-12 11:20:00,88.5,78.7,29.94,NE,37,2.0,2.0,73,0.00,,,0.00,Wunderground v.1.15,2013-07-12 16:20:00,
2013-07-12 11:25:00,88.2,78.0,29.94,NNE,29,2.0,2.0,72,0.00,,,0.00,Wunderground v.1.15,2013-07-12 16:25:00,
2013-07-12 11:30:00,88.4,78.6,29.94,NW,323,2.0,5.0,73,0.00,,,0.00,Wunderground v.1.15,2013-07-12 16:30:00,
2013-07-12 11:35:00,88.8,79.0,29.93,NNW,338,3.0,5.0,73,0.00,,,0.00,Wunderground v.1.15,2013-07-12 16:35:00,
2013-07-12 11:40:00,89.7,79.9,29.93,NNW,339,2.0,4.0,73,0.00,,,0.00,Wunderground v.1.15,2013-07-12 16:40:00,
2013-07-12 11:50:00,89.5,78.4,29.93,NNW,335,3.0,4.0,70,0.00,,,0.00,Wunderground v.1.15,2013-07-12 16:50:00,
2013-07-12 11:55:00,88.8,78.2,29.93,ENE,63,4.0,4.0,71,0.00,,,0.00,Wunderground v.1.15,2013-07-12 16:55:00,
2013-07-12 12:00:00,89.2,78.6,29.93,NW,305,4.0,4.0,71,0.00,,,0.00,Wunderground v.1.15,2013-07-12 17:00:00,
2013-07-12 12:05:00,89.9,77.9,29.93,NNE,27,3.0,4.0,68,0.00,,,0.00,Wunderground v.1.15,2013-07-12 17:05:00,
2013-07-12 12:10:00,90.1,79.0,29.93,NW,322,2.0,2.0,70,0.00,,,0.00,Wunderground v.1.15,2013-07-12 17:10:00,
2013-07-12 12:20:00,90.2,77.8,29.93,West,269,3.0,3.0,67,0.00,,,0.00,Wunderground v.1.15,2013-07-12 17:20:00,
2013-07-12 12:25:00,91.1,79.1,29.93,NW,313,3.0,4.0,68,0.00,,,0.00,Wunderground v.1.15,2013-07-12 17:25:00,
2013-07-12 12:30:00,91.5,77.6,29.92,North,352,3.0,3.0,64,0.00,,,0.00,Wunderground v.1.15,2013-07-12 17:30:00,
2013-07-12 12:35:00,91.8,78.8,29.93,WNW,290,3.0,3.0,66,0.00,,,0.00,Wunderground v.1.15,2013-07-12 17:35:00,
2013-07-12 12:40:00,92.1,78.2,29.92,WNW,295,2.0,2.0,64,0.00,,,0.00,Wunderground v.1.15,2013-07-12 17:40:00,
2013-07-12 12:45:00,92.1,79.1,29.92,NNW,341,3.0,3.0,66,0.00,,,0.00,Wunderground v.1.15,2013-07-12 17:45:00,
2013-07-12 12:50:00,92.0,78.1,29.92,NW,312,3.0,3.0,64,0.00,,,0.00,Wunderground v.1.15,2013-07-12 17:50:00,
2013-07-12 12:55:00,92.1,79.1,29.92,NNW,341,3.0,6.0,66,0.00,,,0.00,Wunderground v.1.15,2013-07-12 17:55:00,
2013-07-12 13:00:00,92.0,77.1,29.91,WSW,255,3.0,3.0,62,0.00,,,0.00,Wunderground v.1.15,2013-07-12 18:00:00,
2013-07-12 13:05:00,93.1,77.7,29.92,NW,325,2.0,3.0,61,0.00,,,0.00,Wunderground v.1.15,2013-07-12 18:05:00,
2013-07-12 13:10:00,92.8,77.4,29.92,NE,36,3.0,5.0,61,0.00,,,0.00,Wunderground v.1.15,2013-07-12 18:10:00,
2013-07-12 13:15:00,92.1,77.7,29.91,WSW,252,4.0,5.0,63,0.00,,,0.00,Wunderground v.1.15,2013-07-12 18:15:00,
2013-07-12 13:25:00,93.4,77.9,29.91,WSW,250,3.0,3.0,61,0.00,,,0.00,Wunderground v.1.15,2013-07-12 18:25:00,
2013-07-12 13:30:00,94.1,78.1,29.91,NW,321,2.0,2.0,60,0.00,,,0.00,Wunderground v.1.15,2013-07-12 18:30:00,
2013-07-12 13:35:00,94.3,78.3,29.91,West,280,3.0,3.0,60,0.00,,,0.00,Wunderground v.1.15,2013-07-12 18:35:00,
2013-07-12 13:45:00,92.8,77.9,29.91,WSW,247,2.0,3.0,62,0.00,,,0.00,Wunderground v.1.15,2013-07-12 18:45:00,
2013-07-12 13:50:00,92.6,78.2,29.91,NNW,345,3.0,3.0,63,0.00,,,0.00,Wunderground v.1.15,2013-07-12 18:50:00,
2013-07-12 14:00:00,92.4,78.0,29.91,NW,304,3.0,3.0,63,0.00,,,0.00,Wunderground v.1.15,2013-07-12 19:00:00,
2013-07-12 14:05:00,92.6,79.1,29.91,NNW,338,3.0,4.0,65,0.00,,,0.00,Wunderground v.1.15,2013-07-12 19:05:00,
2013-07-12 14:15:00,93.9,77.9,29.91,WNW,301,3.0,3.0,60,0.00,,,0.00,Wunderground v.1.15,2013-07-12 19:15:00,
2013-07-12 14:20:00,94.6,79.1,29.91,North,352,3.0,3.0,61,0.00,,,0.00,Wunderground v.1.15,2013-07-12 19:20:00,
2013-07-12 14:25:00,93.4,76.4,29.91,North,4,3.0,3.0,58,0.00,,,0.00,Wunderground v.1.15,2013-07-12 19:25:00,
2013-07-12 14:30:00,93.2,75.7,29.90,NNW,330,4.0,4.0,57,0.00,,,0.00,Wunderground v.1.15,2013-07-12 19:30:00,
2013-07-12 14:40:00,93.6,77.6,29.90,NW,325,4.0,4.0,60,0.00,,,0.00,Wunderground v.1.15,2013-07-12 19:40:00,
2013-07-12 14:45:00,94.4,76.8,29.90,NW,308,3.0,4.0,57,0.00,,,0.00,Wunderground v.1.15,2013-07-12 19:45:00,
2013-07-12 14:50:00,93.6,76.6,29.90,NNW,347,3.0,4.0,58,0.00,,,0.00,Wunderground v.1.15,2013-07-12 19:50:00,
2013-07-12 15:00:00,93.3,76.8,29.90,NE,47,2.0,2.0,59,0.00,,,0.00,Wunderground v.1.15,2013-07-12 20:00:00,
2013-07-12 15:05:00,93.8,77.8,29.89,WNW,300,2.0,3.0,60,0.00,,,0.00,Wunderground v.1.15,2013-07-12 20:05:00,
2013-07-12 15:10:00,93.7,77.2,29.89,NW,323,3.0,3.0,59,0.00,,,0.00,Wunderground v.1.15,2013-07-12 20:10:00,
2013-07-12 15:20:00,93.6,77.1,29.89,NE,46,2.0,5.0,59,0.00,,,0.00,Wunderground v.1.15,2013-07-12 20:20:00,
2013-07-12 15:30:00,93.2,75.7,29.89,ENE,69,2.0,2.0,57,0.00,,,0.00,Wunderground v.1.15,2013-07-12 20:30:00,
2013-07-12 15:35:00,93.5,74.9,29.89,NNE,32,3.0,3.0,55,0.00,,,0.00,Wunderground v.1.15,2013-07-12 20:35:00,
2013-07-12 15:40:00,94.1,74.9,29.89,ENE,74,2.0,5.0,54,0.00,,,0.00,Wunderground v.1.15,2013-07-12 20:40:00,
2013-07-12 15:45:00,93.9,74.7,29.89,East,95,3.0,5.0,54,0.00,,,0.00,Wunderground v.1.15,2013-07-12 20:45:00,
2013-07-12 15:55:00,92.9,75.9,29.89,ENE,68,2.0,4.0,58,0.00,,,0.00,Wunderground v.1.15,2013-07-12 20:55:00,
2013-07-12 16:00:00,92.7,75.2,29.89,NE,38,3.0,3.0,57,0.00,,,0.00,Wunderground v.1.15,2013-07-12 21:00:00,
2013-07-12 16:05:00,93.5,73.8,29.89,NNE,27,3.0,3.0,53,0.00,,,0.00,Wunderground v.1.15,2013-07-12 21:05:00,
2013-07-12 16:10:00,94.2,74.4,29.89,NE,53,2.0,6.0,53,0.00,,,0.00,Wunderground v.1.15,2013-07-12 21:10:00,
2013-07-12 16:15:00,93.6,73.3,29.89,NNE,13,3.0,6.0,52,0.00,,,0.00,Wunderground v.1.15,2013-07-12 21:15:00,
2013-07-12 16:20:00,93.6,73.3,29.88,NNE,14,4.0,4.0,52,0.00,,,0.00,Wunderground v.1.15,2013-07-12 21:20:00,
2013-07-12 16:30:00,94.0,73.7,29.88,NE,56,4.0,5.0,52,0.00,,,0.00,Wunderground v.1.15,2013-07-12 21:30:00,
2013-07-12 16:35:00,93.2,74.6,29.88,NNE,32,4.0,5.0,55,0.00,,,0.00,Wunderground v.1.15,2013-07-12 21:35:00,
2013-07-12 16:45:00,93.4,74.8,29.88,East,82,3.0,4.0,55,0.00,,,0.00,Wunderground v.1.15,2013-07-12 21:45:00,
2013-07-12 16:50:00,93.6,74.5,29.87,ENE,60,3.0,4.0,54,0.00,,,0.00,Wunderground v.1.15,2013-07-12 21:50:00,
2013-07-12 16:55:00,93.4,75.9,29.87,ENE,65,4.0,4.0,57,0.00,,,0.00,Wunderground v.1.15,2013-07-12 21:55:00,
2013-07-12 17:00:00,93.4,75.4,29.87,WSW,246,5.0,5.0,56,0.00,,,0.00,Wunderground v.1.15,2013-07-12 22:00:00,
2013-07-12 17:10:00,93.7,74.0,29.87,ENE,63,4.0,4.0,53,0.00,,,0.00,Wunderground v.1.15,2013-07-12 22:10:00,
2013-07-12 17:15:00,93.5,72.7,29.87,East,100,4.0,4.0,51,0.00,,,0.00,Wunderground v.1.15,2013-07-12 22:15:00,
2013-07-12 17:20:00,93.5,73.2,29.87,North,359,4.0,5.0,52,0.00,,,0.00,Wunderground v.1.15,2013-07-12 22:20:00,
2013-07-12 17:25:00,93.5,70.2,29.87,NE,49,4.0,6.0,47,0.00,,,0.00,Wunderground v.1.15,2013-07-12 22:25:00,
2013-07-12 17:30:00,93.5,71.5,29.86,NNE,23,4.0,6.0,49,0.00,,,0.00,Wunderground v.1.15,2013-07-12 22:30:00,
2013-07-12 17:40:00,93.8,71.7,29.87,East,80,3.0,5.0,49,0.00,,,0.00,Wunderground v.1.15,2013-07-12 22:40:00,
2013-07-12 17:45:00,93.3,73.0,29.86,ENE,75,4.0,5.0,52,0.00,,,0.00,Wunderground v.1.15,2013-07-12 22:45:00,
2013-07-12 17:55:00,93.2,72.4,29.86,ENE,58,4.0,5.0,51,0.00,,,0.00,Wunderground v.1.15,2013-07-12 22:55:00,
2013-07-12 18:00:00,93.2,71.8,29.86,ENE,74,4.0,6.0,50,0.00,,,0.00,Wunderground v.1.15,2013-07-12 23:00:00,
2013-07-12 18:05:00,93.2,71.2,29.86,East,90,4.0,6.0,49,0.00,,,0.00,Wunderground v.1.15,2013-07-12 23:05:00,
2013-07-12 18:10:00,93.3,70.7,29.86,ENE,58,3.0,3.0,48,0.00,,,0.00,Wunderground v.1.15,2013-07-12 23:10:00,
2013-07-12 18:20:00,93.2,70.6,29.86,NE,47,3.0,3.0,48,0.00,,,0.00,Wunderground v.1.15,2013-07-12 23:20:00,
2013-07-12 18:25:00,92.9,71.5,29.86,NE,53,3.0,3.0,50,0.00,,,0.00,Wunderground v.1.15,2013-07-12 23:25:00,
2013-07-12 18:30:00,92.7,71.3,29.86,NE,56,4.0,4.0,50,0.00,,,0.00,Wunderground v.1.15,2013-07-12 23:30:00,
2013-07-12 18:35:00,92.5,72.3,29.86,ENE,71,4.0,4.0,52,0.00,,,0.00,Wunderground v.1.15,2013-07-12 23:35:00,
2013-07-12 18:40:00,92.6,71.8,29.86,NE,55,3.0,4.0,51,0.00,,,0.00,Wunderground v.1.15,2013-07-12 23:40:00,
2013-07-12 18:50:00,92.3,71.6,29.85,ENE,59,3.0,4.0,51,0.00,,,0.00,Wunderground v.1.15,2013-07-12 23:50:00,
2013-07-12 19:00:00,92.2,73.7,29.86,ENE,66,3.0,3.0,55,0.00,,,0.00,Wunderground v.1.15,2013-07-13 00:00:00,
2013-07-12 19:05:00,92.0,74.1,29.86,ENE,61,2.0,3.0,56,0.00,,,0.00,Wunderground v.1.15,2013-07-13 00:05:00,
2013-07-12 19:10:00,91.5,74.1,29.86,NE,55,2.0,2.0,57,0.00,,,0.00,Wunderground v.1.15,2013-07-13 00:10:00,
2013-07-12 19:20:00,90.5,74.7,29.86,ENE,59,3.0,3.0,60,0.00,,,0.00,Wunderground v.1.15,2013-07-13 00:20:00,
2013-07-12 19:30:00,89.5,75.2,29.87,East,101,2.0,2.0,63,0.00,,,0.00,Wunderground v.1.15,2013-07-13 00:30:00,
2013-07-12 19:35:00,89.1,75.3,29.88,ESE,110,1.0,2.0,64,0.00,,,0.00,Wunderground v.1.15,2013-07-13 00:35:00,
2013-07-12 19:40:00,88.8,74.6,29.88,ENE,69,1.0,1.0,63,0.00,,,0.00,Wunderground v.1.15,2013-07-13 00:40:00,
2013-07-12 19:50:00,88.5,73.8,29.88,ENE,68,0.0,1.0,62,0.00,,,0.00,Wunderground v.1.15,2013-07-13 00:50:00,
2013-07-12 19:55:00,88.2,75.4,29.88,ENE,68,0.0,1.0,66,0.00,,,0.00,Wunderground v.1.15,2013-07-13 00:55:00,
2013-07-12 20:05:00,87.2,76.2,29.89,ENE,68,0.0,1.0,70,0.00,,,0.00,Wunderground v.1.15,2013-07-13 01:05:00,
2013-07-12 20:10:00,86.8,76.7,29.89,ENE,68,0.0,1.0,72,0.00,,,0.00,Wunderground v.1.15,2013-07-13 01:10:00,
2013-07-12 20:20:00,86.2,75.3,29.89,ENE,68,0.0,1.0,70,0.00,,,0.00,Wunderground v.1.15,2013-07-13 01:20:00,
2013-07-12 20:25:00,86.2,74.4,29.89,ENE,68,0.0,1.0,68,0.00,,,0.00,Wunderground v.1.15,2013-07-13 01:25:00,
2013-07-12 20:35:00,86.1,75.2,29.89,ENE,68,0.0,1.0,70,0.00,,,0.00,Wunderground v.1.15,2013-07-13 01:35:00,
2013-07-12 20:40:00,85.8,74.9,29.88,ENE,68,0.0,1.0,70,0.00,,,0.00,Wunderground v.1.15,2013-07-13 01:40:00,
2013-07-12 20:45:00,85.6,76.8,29.89,ENE,68,0.0,1.0,75,0.00,,,0.00,Wunderground v.1.15,2013-07-13 01:45:00,
2013-07-12 20:50:00,85.2,76.4,29.89,ENE,68,0.0,1.0,75,0.00,,,0.00,Wunderground v.1.15,2013-07-13 01:50:00,
2013-07-12 20:55:00,84.8,76.8,29.89,SSE,148,0.0,1.0,77,0.00,,,0.00,Wunderground v.1.15,2013-07-13 01:55:00,
2013-07-12 21:00:00,84.6,77.7,29.89,SSE,148,0.0,1.0,80,0.00,,,0.00,Wunderground v.1.15,2013-07-13 02:00:00,
2013-07-12 21:05:00,84.1,75.3,29.89,SSE,148,0.0,1.0,75,0.00,,,0.00,Wunderground v.1.15,2013-07-13 02:05:00,
2013-07-12 21:15:00,84.7,73.8,29.89,North,6,0.0,1.0,70,0.00,,,0.00,Wunderground v.1.15,2013-07-13 02:15:00,
2013-07-12 21:30:00,84.8,74.3,29.89,North,7,1.0,1.0,71,0.00,,,0.00,Wunderground v.1.15,2013-07-13 02:30:00,
2013-07-12 21:35:00,84.7,74.3,29.89,NNE,20,1.0,2.0,71,0.00,,,0.00,Wunderground v.1.15,2013-07-13 02:35:00,
2013-07-12 21:40:00,84.8,73.5,29.89,NNE,26,1.0,2.0,69,0.00,,,0.00,Wunderground v.1.15,2013-07-13 02:40:00,
2013-07-12 21:45:00,84.9,72.7,29.89,NNE,32,1.0,2.0,67,0.00,,,0.00,Wunderground v.1.15,2013-07-13 02:45:00,
2013-07-12 21:55:00,85.1,72.9,29.90,NNE,16,1.0,1.0,67,0.00,,,0.00,Wunderground v.1.15,2013-07-13 02:55:00,
2013-07-12 22:05:00,84.6,72.4,29.90,NE,45,3.0,3.0,67,0.00,,,0.00,Wunderground v.1.15,2013-07-13 03:05:00,
2013-07-12 22:10:00,84.4,72.2,29.90,NE,56,3.0,5.0,67,0.00,,,0.00,Wunderground v.1.15,2013-07-13 03:10:00,
2013-07-12 22:15:00,84.2,72.5,29.90,ENE,70,3.0,5.0,68,0.00,,,0.00,Wunderground v.1.15,2013-07-13 03:15:00,
2013-07-12 22:20:00,83.8,72.5,29.90,NE,51,3.0,3.0,69,0.00,,,0.00,Wunderground v.1.15,2013-07-13 03:20:00,
2013-07-12 22:25:00,83.3,72.5,29.90,ENE,64,2.0,3.0,70,0.00,,,0.00,Wunderground v.1.15,2013-07-13 03:25:00,
2013-07-12 22:30:00,83.0,72.6,29.90,ENE,67,1.0,1.0,71,0.00,,,0.00,Wunderground v.1.15,2013-07-13 03:30:00,
2013-07-12 22:35:00,82.7,72.7,29.90,ENE,74,0.0,1.0,72,0.00,,,0.00,Wunderground v.1.15,2013-07-13 03:35:00,
2013-07-12 22:40:00,82.5,72.6,29.90,ENE,74,0.0,1.0,72,0.00,,,0.00,Wunderground v.1.15,2013-07-13 03:40:00,
2013-07-12 22:45:00,82.3,72.4,29.90,ENE,64,1.0,1.0,72,0.00,,,0.00,Wunderground v.1.15,2013-07-13 03:45:00,
2013-07-12 22:50:00,82.1,72.2,29.90,NE,34,1.0,1.0,72,0.00,,,0.00,Wunderground v.1.15,2013-07-13 03:50:00,
2013-07-12 22:55:00,81.9,72.0,29.90,NNW,331,1.0,2.0,72,0.00,,,0.00,Wunderground v.1.15,2013-07-13 03:55:00,
2013-07-12 23:05:00,81.6,71.7,29.91,NNE,32,1.0,1.0,72,0.00,,,0.00,Wunderground v.1.15,2013-07-13 04:05:00,
2013-07-12 23:10:00,81.3,71.4,29.91,East,84,1.0,1.0,72,0.00,,,0.00,Wunderground v.1.15,2013-07-13 04:10:00,
2013-07-12 23:15:00,81.1,71.2,29.91,ENE,68,1.0,1.0,72,0.00,,,0.00,Wunderground v.1.15,2013-07-13 04:15:00,
2013-07-12 23:20:00,80.9,71.4,29.91,NE,34,1.0,2.0,73,0.00,,,0.00,Wunderground v.1.15,2013-07-13 04:20:00,
2013-07-12 23:25:00,80.7,71.2,29.91,ENE,72,1.0,2.0,73,0.00,,,0.00,Wunderground v.1.15,2013-07-13 04:25:00,
2013-07-12 23:30:00,80.5,70.2,29.91,NE,46,1.0,2.0,71,0.00,,,0.00,Wunderground v.1.15,2013-07-13 04:30:00,
2013-07-12 23:35:00,80.5,69.8,29.91,ENE,59,2.0,2.0,70,0.00,,,0.00,Wunderground v.1.15,2013-07-13 04:35:00,
2013-07-12 23:40:00,80.4,69.3,29.91,ENE,65,3.0,4.0,69,0.00,,,0.00,Wunderground v.1.15,2013-07-13 04:40:00,
2013-07-12 23:45:00,80.3,69.2,29.91,North,356,3.0,4.0,69,0.00,,,0.00,Wunderground v.1.15,2013-07-13 04:45:00,
2013-07-12 23:50:00,80.3,69.2,29.92,ENE,75,3.0,3.0,69,0.00,,,0.00,Wunderground v.1.15,2013-07-13 04:50:00,
2013-07-12 23:55:00,80.2,69.1,29.92,ENE,60,3.0,3.0,69,0.00,,,0.00,Wunderground v.1.15,2013-07-13 04:55:00,